This is the latest recevied weather packets stored in our database for station/object OH7GGX-14. If no packets are shown the sender has not sent any weather packets the latest 10 day(s).
| Time | Temp. | Humidity | Pressure | Rain* | Wind** | Luminosity | Snow |
|---|---|---|---|---|---|---|---|
| 1787996816 | 17.22° C | 74% | 1024.7 hPa | 0 mm | - | - | - |
| 1787996216 | 17.22° C | 73% | 1024.7 hPa | 0 mm | - | - | - |
| 1787995616 | 16.67° C | 77% | 1024.9 hPa | 0 mm | - | - | - |
| 1787995016 | 16.67° C | 81% | 1024.8 hPa | 0 mm | - | - | - |
| 1787994416 | 16.67° C | 79% | 1025 hPa | 0 mm | - | - | - |
| 1787993816 | 16.11° C | 83% | 1024.9 hPa | 0 mm | - | - | - |
| 1787993216 | 16.11° C | 78% | 1024.9 hPa | 0 mm | - | - | - |
| 1787992616 | 15.56° C | 86% | 1025.1 hPa | 0 mm | - | - | - |
| 1787992016 | 15.56° C | 86% | 1025 hPa | 0 mm | - | - | - |
| 1787991416 | 15.56° C | 91% | 1025 hPa | 0 mm | - | - | - |
| 1787990817 | 15° C | 97% | 1025.1 hPa | 0 mm | - | - | - |
| 1787990216 | 14.44° C | 99% | 1025 hPa | 0 mm | - | - | - |
| 1787989617 | 14.44° C | 99% | 1025.1 hPa | 0 mm | - | - | - |
| 1787989016 | 13.89° C | 99% | 1025.2 hPa | 0 mm | - | - | - |
| 1787988417 | 13.33° C | 99% | 1025.1 hPa | 0 mm | - | - | - |
| 1787987817 | 13.33° C | 99% | 1025.4 hPa | 0 mm | - | - | - |
| 1787987217 | 12.78° C | 99% | 1025.3 hPa | 0 mm | - | - | - |
| 1787986617 | 12.22° C | 99% | 1025.4 hPa | 0 mm | - | - | - |
| 1787986017 | 11.67° C | 99% | 1025.5 hPa | 0 mm | - | - | - |
| 1787985417 | 11.11° C | 99% | 1025.6 hPa | 0 mm | - | - | - |
| 1787984817 | 11.11° C | 99% | 1025.6 hPa | 0 mm | - | - | - |
| 1787984217 | 10.56° C | 99% | 1025.7 hPa | 0 mm | - | - | - |
| 1787983617 | 10° C | 99% | 1025.6 hPa | 0 mm | - | - | - |
| 1787983017 | 9.44° C | 99% | 1025.7 hPa | 0 mm | - | - | - |
| 1787982417 | 9.44° C | 99% | 1025.9 hPa | 0 mm | - | - | - |
* Rain latest hour (hover to see other rain measurements)
** Current wind speed in m/s (hover to see current wind gust speed)